Aeroporto :
LOGIN :

Iscrizione | Disclaimer

   EN    FR    IT 

 










Sommario :    VFR   VFR Marginale   IFR   IFR Intensivo   IFR Molto Intensivo
Visibilità : 
Base nubi : 
>= 8 km
>= 3000ft
5 / 8 km
1000 / 3000 ft
1500m / 5 km
500 / 1000 ft
800 / 1500m
200 / 500 ft
< 800m
< 200 ft
Simboli :   Temporali  Nebbia  Neve Forte  Precipitazioni Forti  Vento > 20 kt
SIGMETs :   Varie  Temporali  Ghiacco  Turbolenza  Onda orograficha  Ceneri Vulcaniche







- Altitudine del aeroporto : 50 ft
- Codice IATA : KOI
- Carte del aeroporto


EGPA - Kirkwall

ULTIMO METAR :
  • 211720Z 18009KT 9999 FEW030 09/08 Q1017

METARs OBSOLETI :
  • 211650Z 18010KT 9999 FEW040 10/08 Q1017
  • 211620Z 17006KT 140V220 9999 FEW040 11/09 Q1017
  • 211550Z VRB01KT 9999 FEW032 11/09 Q1017
  • 211520Z 18006KT 9999 FEW032 12/10 Q1017
  • 211450Z 20008KT 9999 FEW032 13/10 Q1016

TAF TAF EGPA
Valido dal 21 a 18 ore il 22 a 03 ore UTC


211701Z 2118/2203 18012KT 9999 FEW030
Nessun NOTAM noto per questo aeroporto.



MetMap, La meteo Aeronautica in un colpo d'occhio ! - Copyright ORBIFLY Dicembre 2007 - Disclaimer

ORBIFLY MET'MAP TEAM :

Programmazione e sviluppo : Alexandra Zaïnal
Concezione e sviluppo : Baudouin d'Aumeries
Co-Programmazione e sviluppo : Marc-Olivier Méhu
Supporto tecnico e logistico : Manuel Goepfert
Aiuto per la traduzione : Arnaldo La Scala

Contatto : metmap@orbifly.com




FONTI E CREDITI :

   NOAA